Change the Weather History Date:

Friday, January 4, 2013

  Actual Average Record
Temperature  
Mean Temperature 29 °F 33 °F  
Max Temperature 37 °F 41 °F 68 °F (1997)
Min Temperature 21 °F 24 °F 1 °F (1959)
Degree Days  
Heating Degree Days 36 32  
Month to date heating degree days 155 128  
Since 1 July heating degree days 1808 1900  
Cooling Degree Days 0 0  
Month to date cooling degree days 0 0  
Year to date cooling degree days 0 0  
Moisture  
Dew Point 20 °F    
Average Humidity 72    
Maximum Humidity 88    
Minimum Humidity 56    
Precipitation  
Precipitation 0.00 in 0.11 in 2.22 in (1939)
Month to date precipitation 0.01 0.41  
Year to date precipitation 0.01 0.41  
Snow  
Snow 0.00 in 0.10 in 1.70 in (1972)
Month to date snowfall T 0.5  
Since 1 July snowfall 10.7 4.0  
Snow Depth 1.00 in    
Sea Level Pressure  
Sea Level Pressure 30.43 in    
Wind  
Wind Speed 2 mph (WSW)    
Max Wind Speed 12 mph    
Max Gust Speed 16 mph    
Visibility 9 miles    
Events      
T = Trace of Precipitation, MM = Missing Value Source: NWS Daily Summary

Daily Weather History Graph

Daily Weather History Graph

Search for Another Location

Airport or City:

Trip Planner

Search our weather history database for the weather conditions in past years. The results will help you decide how hot, cold, wet, or windy it might be!

Date:

Astronomy

Jan. 04, 2013 Rise Set
Actual Time 7:06 AM CST 4:44 PM CST
Civil Twilight 6:37 AM CST 5:13 PM CST
Nautical Twilight 6:04 AM CST 5:46 PM CST
Astronomical Twilight 5:32 AM CST 6:18 PM CST
Moon No Moon Rise 10:56 AM CST (1/4)
Length of Visible Light 10h 36m
Length of Day
9h 37m
Waning Gibbous, 55% of the Moon is Illuminated
Jan 4
Waning Gibbous
Jan 4
Last Quarter
Jan 11
New
Jan 18
First Quarter
Jan 26
Full

Hourly Weather History & Observations

Time (CST) Temp. Windchill Dew Point Humidity Pressure Visibility Wind Dir Wind Speed Gust Speed Precip Events Conditions
12:54 AM 28.9 °F - 23.0 °F 78% 30.40 in 9.0 mi Calm Calm - N/A   Overcast
1:54 AM 30.0 °F - 23.0 °F 75% 30.41 in 10.0 mi Calm Calm - N/A   Overcast
2:54 AM 28.0 °F - 21.0 °F 75% 30.41 in 10.0 mi Calm Calm - N/A   Clear
3:54 AM 24.1 °F - 19.9 °F 84% 30.41 in 9.0 mi Calm Calm - N/A   Clear
4:54 AM 23.0 °F - 18.0 °F 81% 30.41 in 8.0 mi Calm Calm - N/A   Clear
5:54 AM 24.1 °F - 19.0 °F 81% 30.42 in 7.0 mi Calm Calm - N/A   Clear
6:54 AM 21.0 °F - 16.0 °F 81% 30.44 in 6.0 mi Calm Calm - N/A   Haze
7:54 AM 25.0 °F 20.7 °F 21.0 °F 85% 30.44 in 6.0 mi West 3.5 mph - N/A   Clear
8:54 AM 27.0 °F - 21.0 °F 78% 30.46 in 8.0 mi Calm Calm - N/A   Clear
9:54 AM 32.0 °F 25.6 °F 21.9 °F 66% 30.48 in 8.0 mi West 6.9 mph - N/A   Clear
10:54 AM 33.1 °F 25.5 °F 21.0 °F 61% 30.49 in 10.0 mi West 9.2 mph - N/A   Overcast
11:54 AM 34.0 °F 26.6 °F 19.9 °F 56% 30.46 in 10.0 mi WNW 9.2 mph - N/A   Scattered Clouds
12:54 PM 35.1 °F - 21.0 °F 57% 30.43 in 10.0 mi Calm Calm - N/A   Clear
1:54 PM 36.0 °F 31.1 °F 21.9 °F 57% 30.42 in 10.0 mi West 5.8 mph - N/A   Clear
2:54 PM 35.1 °F 30.1 °F 21.9 °F 59% 30.43 in 10.0 mi SSW 5.8 mph - N/A   Clear
3:54 PM 35.1 °F 31.0 °F 21.9 °F 59% 30.43 in 10.0 mi SSW 4.6 mph - N/A   Clear
4:54 PM 33.1 °F - 21.9 °F 64% 30.42 in 10.0 mi Calm Calm - N/A   Clear
5:54 PM 30.0 °F - 21.0 °F 69% 30.42 in 10.0 mi Calm Calm - N/A   Clear
6:54 PM 28.9 °F - 21.0 °F 72% 30.42 in 10.0 mi Calm Calm - N/A   Clear
7:54 PM 23.0 °F 15.8 °F 19.0 °F 85% 30.39 in 9.0 mi ENE 5.8 mph - N/A   Clear
8:54 PM 25.0 °F - 19.0 °F 78% 30.40 in 9.0 mi Calm Calm - N/A   Clear
9:54 PM 24.1 °F - 19.0 °F 81% 30.41 in 8.0 mi Calm Calm - N/A   Clear
10:54 PM 23.0 °F - 19.0 °F 85% 30.41 in 6.0 mi Calm Calm - N/A   Clear
11:54 PM 21.9 °F - 18.0 °F 85% 30.40 in 5.0 mi Calm Calm - N/A   Clear